www.pogodaiklimat.ru

Погода и климат >> Архив погоды >> Канада >> Grand Etang


ПОГОДА в Grand Etang

  • Прогноз погоды в Grand Etang
  • Монитор погоды в Grand Etang
  • Климат города

АРХИВ ПОГОДЫ в Grand Etang

Время (UTC), дата Ветер
(напр.,м/с)
 
Видим.   Явления Облачность Т
(С)
Тd
(С)
f
(%)
Тe
(С)
Тes
(С)
Комфортность P
(гПа)
Po
(гПа)
Тmin
(С)
Tmax
(С)
R
(мм)
R24
(мм)
S
(см)
06 12.08 Ю 4 16 км ясно +11.1 +9.9 92 +9 +9 1010.8 1004.8 +5.1 +14.0
09 12.08 Ю 5 16 км ясно +11.1 +9.7 91 +8 +8 1011.1 1005.1
12 12.08 Ю 7 16 км ясно +11.2 +9.6 90 +8 +9 1011.2 1005.2 +9.7 +14.0
15 12.08 Ю 9 16 км ясно +13.3 +10.1 81 +10 +12 1010.7 1004.7
18 12.08 Ю 8 16 км ясно +16.6 +11.7 73 +15 +18 1010.4 1004.4 +9.7 +16.6
21 12.08 ЮВ 5 16 км ясно +16.4 +11.6 73 +15 +17 1009.9 1003.9
00 13.08 Ю 10 16 км ясно +17.4 +12.4 72 +16 +16 1008.5 1002.6 +10.4 +18.0
03 13.08 Ю 9 16 км ясно +14.3 +11.3 82 +12 +12 1007.7 1001.8
06 13.08 Ю 9 16 км 5/0
[]
+12.4 +10.7 89 +9 +9 1006.6 1000.7 +10.4 +18.0 51
09 13.08 Ю 9 16 км ясно +11.3 +10.4 94 +7 +7 1006.2 1000.3
12 13.08 Ю 10 16 км ясно +11.2 +10.3 94 +7 +7 1005.1 999.2 +11.2 +18.0
15 13.08 Ю 5 16 км н/о +12.2 +10.4 89 +10 +10 1004.1 998.2 +11.2 +14.3
18 13.08 Ю 5 16 км н/о +14.3 +11.4 83 +13 +13 1003.1 997.2 +11.2 +14.4
21 13.08 Ю 4 9000 м дым н/о +14.8 +11.7 82 +14 +14 1002.9 997.0 +11.2 +15.4
00 14.08 ЮЗ 6 11 км 3/3 600 м
[]
+12.8 +10.9 88 +10 +10 1002.3 996.4 +11.2 +15.4
03 14.08 ЮЗ 3 14 км н/о +11.1 +10.3 95 +9 +9 1001.8 995.9 +10.9 +15.4
06 14.08 ЮЗ 5 8000 м дымка 10/10 600 м
[]
+12.0 +11.3 95 +9 +9 1001.4 995.5 +10.8 +15.4 111
09 14.08 С 5 100 м туман н/о +9.3 +9.0 98 +6 +6 1002.0 996.1
12 14.08 С 7 100 м туман н/о +7.4 +7.3 99 +2 +2 1003.2 997.2 +7.3 +15.4
15 14.08 С 7 1600 м дымка н/о +7.0 +6.9 99 +2 +2 1004.4 998.4
18 14.08 СВ 8 300 м туман н/о +9.5 +9.4 99 +5 +5 1005.5 999.5 +6.8 +12.0
21 14.08 СВ 7 16 км 10/10 300 м
[]
+10.1 +9.0 93 +6 +6 1007.9 1001.9
00 15.08 СВ 6 16 км 10/10 600 м
[]
+9.5 +7.6 88 +6 +6 1009.9 1003.9 +6.8 +10.2
03 15.08 В 4 16 км н/о +6.8 +4.0 82 +3 +3 1011.5 1005.5 +6.8 +10.2
06 15.08 В 8 16 км ясно +5.3 +2.5 82 -1 -1 1012.7 1006.7 +5.2 +12.0 51
09 15.08 СВ 9 16 км ясно +4.4 +1.2 80 -2 -2 1013.7 1007.7
12 15.08 В 9 16 км ясно +4.3 +0.7 77 -2 -2 1014.8 1008.7 +4.1 +12.0
15 15.08 СВ 8 16 км ясно +4.8 +1.3 78 -1 +1 1015.3 1009.2
18 15.08 СВ 9 16 км 3/0
[]
+5.9 +2.3 78 0 +2 1015.2 1009.1 +4.1 +6.0
21 15.08 СВ 7 16 км ясно +6.9 +2.0 71 +2 +3 1016.0 1009.9
00 16.08 СВ 7 16 км ясно +6.3 +2.9 79 +1 +1 1015.7 1009.6 +4.1 +7.0
03 16.08 В 4 16 км н/о +5.9 +2.1 77 +2 +2 1015.9 1009.8 +4.1 +7.0
06 16.08 В 7 16 км ясно +5.0 +2.0 81 -1 -1 1015.8 1009.7 +4.1 +7.0 111
09 16.08 В 7 16 км ясно +4.9 +2.9 87 -1 -1 1015.9 1009.8
12 16.08 В 7 16 км ясно +5.3 +2.9 84 -0 +1 1015.5 1009.4 +4.6 +7.0
15 16.08 В 9 16 км ясно +6.2 +3.5 83 +1 +2 1015.1 1009.0
18 16.08 В 6 16 км ясно +7.2 +4.4 82 +3 +7 1015.0 1008.9 +4.6 +7.3
21 16.08 В 6 16 км ясно +8.1 +5.8 85 +4 +5 1014.5 1008.4
00 17.08 В 5 16 км ясно +8.8 +5.7 81 +6 +6 1013.7 1007.7 +4.6 +8.9
03 17.08 ЮВ 5 16 км ясно +7.6 +5.9 89 +4 +4 1013.2 1007.2
06 17.08 ЮВ 4 16 км ясно +7.4 +6.4 93 +4 +4 1013.2 1007.2 +4.6 +8.9 151
09 17.08 ЮВ 4 16 км ясно +6.0 +5.7 98 +2 +2 1013.0 1007.0
12 17.08 ЮВ 4 16 км ясно +6.5 +6.1 97 +3 +6 1012.6 1006.6 +5.9 +8.9
15 17.08 Ю 5 16 км ясно +8.5 +7.0 90 +5 +13 1012.5 1006.5
18 17.08 Ю 5 16 км ясно +9.7 +7.2 84 +6 +13 1012.1 1006.1 +5.9 +9.8
21 17.08 Ю 5 16 км ясно +9.7 +6.5 80 +7 +8 1011.9 1005.9
00 18.08 В 3 16 км ясно +9.1 +7.0 87 +7 +7 1011.7 1005.7 +5.9 +10.2
03 18.08 ЮВ 3 16 км ясно +8.5 +6.5 87 +6 +6 1010.9 1004.9
06 18.08 ЮВ 3 16 км ясно +8.8 +6.3 84 +6 +6 1010.7 1004.7 +5.9 +10.2
09 18.08 В 3 16 км ясно +7.5 +6.5 93 +5 +5 1010.6 1004.6
12 18.08 Ю 3 16 км ясно +7.6 +6.1 90 +5 +10 1010.5 1004.5 +6.3 +10.2
15 18.08 Ю 2 16 км ясно +9.4 +7.4 87 +8 +22 опасность
простуды
1010.3 1004.3
18 18.08 ЮЗ 2 16 км ясно +11.2 +6.6 73 +10 +22 опасность
простуды
1010.5 1004.5 +6.3 +11.8
21 18.08 В 3 16 км ясно +10.6 +7.1 79 +9 +11 1010.5 1004.5
00 19.08 В 3 16 км ясно +10.7 +5.3 69 +9 +9 1010.4 1004.4 +6.3 +12.4

 

Местоположение метеостанции Grand Etang (Канада): широта 46.55 долгота -61.05 высота над уровнем моря 13 м.

В архиве по умолчанию представлена погода в Grand Etang за последнюю неделю. Архивные данные за месяц целиком и за предыдущие месяцы, начиная с января 2011 года, Вы можете получить, выбрав интересующий диапазон дат из раскрывающегося списка и нажав кнопку "Ввод!".

Внимание! Время в таблицах - всемирное. Для получения местного времени необходимо прибавить поправку, которая в Grand Etang равна -4 ч.

Смотрите также архив погоды в соседних городах и на ближайших метеорологических станциях:

Погода в Cheticamp (Канада) (13 км)
Погода в North Mountain (Канада) (42 км)
Погода в Ingonish Beach (Канада) (51 км)
Погода в East Point (Канада) (71 км)
Погода в Sydney (Канада) (88 км)
Погода в Sydney Rcs (Канада) (88 км)
Погода в St Paul Island (Канада) (103 км)
Погода в Port Hawkesbury (Канада) (103 км)
Погода в Lles de la Madelein (Канада) (111 км)
Погода в Lles de la Madelein (Канада) (111 км)

Пояснения к столбцам:

Ветер - указаны скорость ветра в м/с - средняя за 10 мин, порывы в срок и между сроками (в фигурных скобках) и направление, откуда дует ветер: С - северный, СВ - северо-восточный, В - восточный, ЮВ - юго-восточный, Ю - южный, ЮЗ - юго-западный, З - западный, СЗ - северо-западный.
Видимость - горизонтальная дальность видимости в метрах или километрах. При видимости от 1 до 10 км при отсутствии осадков обычно наблюдается дымка, при ухудшении видимости до 1 км и менее - туман. В сухую погоду видимость может ухудшаться дымом, пылью или мглою.
Явления - указаны атмосферные явления, наблюдавшиеся в срок или в последний час перед сроком; фигурными скобками обозначены явления, наблюдавшиеся между сроками (за 1-3 часа до срока); квадратными скобками обозначены град или гололедные отложения с указанием их диаметра в мм.
Облачность - указаны через наклонную черту общая и нижняя облачность в баллах и высота нижней границы облаков в метрах; квадратными скобками обозначены формы облаков: Ci - перистые, Cs - перисто-слоистые, Cc - перисто-кучевые, Ac - высококучевые, As - высокослоистые, Sc - слоисто-кучевые, Ns - слоисто-дождевые, Cu - кучевые, Cb - кучево-дождевые. Подробнее классификацию облаков см. в Атласе облаков (PDF).
T - Температура воздуха - температура, измеренная на высоте 2 м над землей.
Td - Температура точки росы - температура, при понижении до которой содержащийся в воздухе водяной пар достигнет насыщения.
f - Относительная влажность воздуха - влажноcть воздуха, измеренная на высоте 2 м над землей.
Te - Эффективная температура - температура, которую ощущает одетый по сезону человек в тени. Характеристика душности погоды. При расчете учитывается влияние влажности воздуха и скорости ветра на теплоощущения человека.
Tes - Эффективная температура на солнце - температура, которую ощущает человек, с поправкой на солнечный нагрев. Характеристика знойности погоды. Зависит от высоты солнца над горизонтом, облачности и скорости ветра. Ночью, в пасмурную погоду, а также при ветре 12 м/с и более поправка равна нулю.
P - Атмосферное давление - приведенное к уровню моря атмосферное давление.
Po - Атмосферное давление - измеренное на уровне метеостанции атмосферное давление.
Tmin - Минимальная температура - минимум температуры воздуха на высоте 2 м над землей.
Tmax - Максимальная температура - максимум температуры воздуха на высоте 2 м над землей.
R - Количество осадков - Количество выпавших осадков за период времени, мм. При наведении курсора мыши на число - период времени, за который выпало указанное количество осадков.
R24 - Количество осадков - Количество выпавших осадков за 24 часа, мм.
S - Снежный покров - Высота снежного покрова, см. При наведении курсора мыши на число - состояние снежного покрова и степень покрытия местности в баллах.